Weather History for KIZA - August, 2013

Change the Weather History Date:

Sunday, August 4, 2013

  Actual Average (KSBA) Record (KSBA)
Temperature  
Mean Temperature 66 °F 66 °F  
Max Temperature 82 °F 74 °F 86 °F (1976)
Min Temperature 50 °F 58 °F 49 °F (1956)
Degree Days  
Heating Degree Days 0 1  
Month to date heating degree days 4  
Since 1 June heating degree days 121  
Since 1 July heating degree days 31  
Cooling Degree Days 1 2  
Month to date cooling degree days 8  
Year to date cooling degree days 80  
Since 1 June cooling degree days 66  
Growing Degree Days 16 (Base 50)    
Moisture  
Dew Point 50 °F    
Average Humidity 70    
Maximum Humidity 100    
Minimum Humidity 28    
Precipitation  
Precipitation 0.00 in 0.01 in 0.02 in (2006)
Month to date precipitation 0.01  
Year to date precipitation 12.09  
Sea Level Pressure  
Sea Level Pressure 29.99 in    
Wind  
Wind Speed 3 mph (West)    
Max Wind Speed 14 mph    
Max Gust Speed 16 mph    
Visibility 8 miles    
Events      
T = Trace of Precipitation, MM = Missing Value Source: NWS Daily Summary

Daily Weather History Graph

Daily Weather History Graph

Search for Another Location

Airport or City:

Trip Planner

Search our weather history database for the weather conditions in past years. The results will help you decide how hot, cold, wet, or windy it might be!

Date:

Astronomy

Aug. 04, 2013 Rise Set
Actual Time 6:13 AM PDT 7:59 PM PDT
Civil Twilight 5:45 AM PDT 8:26 PM PDT
Nautical Twilight 5:12 AM PDT 8:59 PM PDT
Astronomical Twilight 4:37 AM PDT 9:34 PM PDT
Moon 4:19 AM PDT (8/4) 6:25 PM PDT (8/4)
Length of Visible Light 14h 40m
Length of Day
13h 46m
Waning Crescent, 4% of the Moon is Illuminated
Aug 4
Waning Crescent
Aug 6
New
Aug 14
First Quarter
Aug 20
Full
Aug 28
Last Quarter

Hourly Weather History & Observations

Time (PDT) Temp. Dew Point Humidity Pressure Visibility Wind Dir Wind Speed Gust Speed Precip Events Conditions
12:15 AM 50.0 °F 46.4 °F 87% 30.01 in 10.0 mi Calm Calm - N/A   Scattered Clouds
12:35 AM 50.0 °F 48.2 °F 94% 30.00 in 10.0 mi Calm Calm - N/A   Scattered Clouds
12:55 AM 51.8 °F 48.2 °F 88% 30.00 in 10.0 mi Calm Calm - N/A   Mostly Cloudy
1:15 AM 51.8 °F 50.0 °F 94% 30.00 in 7.0 mi Calm Calm - N/A   Overcast
1:35 AM 51.8 °F 50.0 °F 94% 30.00 in 10.0 mi Calm Calm - N/A   Overcast
1:55 AM 51.8 °F 48.2 °F 88% 30.00 in 10.0 mi Calm Calm - N/A   Overcast
2:15 AM 51.8 °F 48.2 °F 88% 30.00 in 10.0 mi Calm Calm - N/A   Overcast
2:35 AM 51.8 °F 50.0 °F 94% 29.99 in 10.0 mi Calm Calm - N/A   Overcast
2:55 AM 51.8 °F 50.0 °F 94% 29.99 in 5.0 mi North 3.5 mph - N/A   Overcast
3:15 AM 51.8 °F 50.0 °F 94% 29.99 in 2.5 mi Calm Calm - N/A   Overcast
3:35 AM 51.8 °F 50.0 °F 94% 29.99 in 1.2 mi Calm Calm - N/A   Overcast
3:55 AM 51.8 °F 50.0 °F 94% 29.99 in 1.8 mi Calm Calm - N/A   Overcast
4:15 AM 50.0 °F 50.0 °F 100% 29.98 in 1.2 mi Calm Calm - N/A   Overcast
4:35 AM 51.8 °F 50.0 °F 94% 29.98 in 1.8 mi Calm Calm - N/A   Overcast
4:55 AM 51.8 °F 50.0 °F 94% 29.98 in 4.0 mi Calm Calm - N/A   Overcast
5:15 AM 51.8 °F 50.0 °F 94% 29.99 in 4.0 mi Calm Calm - N/A   Overcast
5:35 AM 50.0 °F 50.0 °F 100% 29.99 in 5.0 mi Calm Calm - N/A   Overcast
5:55 AM 50.0 °F 50.0 °F 100% 30.00 in 1.2 mi NW 3.5 mph - N/A   Overcast
6:15 AM 50.0 °F 50.0 °F 100% 30.00 in 1.8 mi Calm Calm - N/A   Overcast
6:35 AM 51.8 °F 50.0 °F 94% 30.01 in 2.5 mi Calm Calm - N/A   Overcast
6:55 AM 51.8 °F 50.0 °F 94% 30.01 in 2.0 mi Calm Calm - N/A   Overcast
7:15 AM 51.8 °F 50.0 °F 94% 30.02 in 1.2 mi SE 3.5 mph - N/A   Overcast
7:35 AM 51.8 °F 50.0 °F 94% 30.02 in 1.5 mi Calm Calm - N/A   Overcast
7:55 AM 51.8 °F 50.0 °F 94% 30.02 in 4.0 mi SE 3.5 mph - N/A   Overcast
8:15 AM 51.8 °F 50.0 °F 94% 30.03 in 7.0 mi Calm Calm - N/A   Overcast
8:35 AM 51.8 °F 50.0 °F 94% 30.03 in 10.0 mi Calm Calm - N/A   Overcast
8:55 AM 53.6 °F 50.0 °F 88% 30.03 in 10.0 mi Calm Calm - N/A   Overcast
9:15 AM 53.6 °F 50.0 °F 88% 30.02 in 10.0 mi Calm Calm - N/A   Overcast
9:35 AM 55.4 °F 50.0 °F 82% 30.03 in 10.0 mi Calm Calm - N/A   Mostly Cloudy
9:55 AM 59.0 °F 50.0 °F 72% 30.03 in 10.0 mi NW 5.8 mph - N/A   Scattered Clouds
10:15 AM 60.8 °F 50.0 °F 68% 30.03 in 10.0 mi West 4.6 mph - N/A   Clear
10:35 AM 60.8 °F 50.0 °F 68% 30.03 in 10.0 mi West 4.6 mph - N/A   Clear
10:55 AM 64.4 °F 50.0 °F 59% 30.02 in 10.0 mi West 4.6 mph - N/A   Clear
11:15 AM 66.2 °F 50.0 °F 56% 30.01 in 10.0 mi West 6.9 mph - N/A   Clear
11:35 AM 68.0 °F 50.0 °F 52% 30.01 in 10.0 mi West 5.8 mph - N/A   Clear
11:55 AM 71.6 °F 48.2 °F 43% 30.01 in 10.0 mi West 8.1 mph - N/A   Clear
12:15 PM 73.4 °F 50.0 °F 44% 30.00 in 10.0 mi West 4.6 mph - N/A   Clear
12:35 PM 77.0 °F 50.0 °F 39% 30.00 in 10.0 mi WNW 9.2 mph - N/A   Clear
12:55 PM 78.8 °F 50.0 °F 36% 29.99 in 10.0 mi NW 4.6 mph - N/A   Clear
1:15 PM 78.8 °F 50.0 °F 36% 29.98 in 10.0 mi WNW 6.9 mph - N/A   Clear
1:35 PM 80.6 °F 50.0 °F 34% 29.98 in 10.0 mi West 10.4 mph 16.1 mph N/A   Clear
1:55 PM 80.6 °F 46.4 °F 30% 29.98 in 10.0 mi WNW 9.2 mph 16.1 mph N/A   Clear
2:15 PM 82.4 °F 46.4 °F 28% 29.98 in 10.0 mi West 10.4 mph - N/A   Clear
2:35 PM 82.4 °F 48.2 °F 30% 29.98 in 10.0 mi WNW 12.7 mph 16.1 mph N/A   Clear
2:55 PM 82.4 °F 50.0 °F 32% 29.97 in 10.0 mi West 13.8 mph - N/A   Clear
3:15 PM 82.4 °F 50.0 °F 32% 29.96 in 10.0 mi West 12.7 mph - N/A   Clear
3:35 PM 80.6 °F 50.0 °F 34% 29.96 in 10.0 mi West 12.7 mph - N/A   Clear
3:55 PM 80.6 °F 48.2 °F 32% 29.96 in 10.0 mi WNW 11.5 mph - N/A   Clear
4:15 PM 80.6 °F 48.2 °F 32% 29.96 in 10.0 mi West 12.7 mph - N/A   Clear
4:35 PM 80.6 °F 48.2 °F 32% 29.95 in 10.0 mi WNW 11.5 mph - N/A   Clear
4:55 PM 80.6 °F 48.2 °F 32% 29.95 in 10.0 mi WNW 13.8 mph - N/A   Clear
5:15 PM 78.8 °F 48.2 °F 34% 29.95 in 10.0 mi West 13.8 mph - N/A   Clear
5:35 PM 77.0 °F 50.0 °F 39% 29.95 in 10.0 mi WNW 12.7 mph - N/A   Clear
5:55 PM 75.2 °F 50.0 °F 41% 29.95 in 10.0 mi West 11.5 mph - N/A   Clear
6:15 PM 73.4 °F 50.0 °F 44% 29.95 in 10.0 mi WNW 11.5 mph - N/A   Clear
6:35 PM 71.6 °F 50.0 °F 46% 29.96 in 10.0 mi West 10.4 mph - N/A   Clear
6:55 PM 69.8 °F 50.0 °F 49% 29.96 in 10.0 mi West 11.5 mph - N/A   Clear
7:15 PM 66.2 °F 50.0 °F 56% 29.97 in 10.0 mi West 9.2 mph - N/A   Clear
7:35 PM 64.4 °F 50.0 °F 59% 29.98 in 10.0 mi West 9.2 mph - N/A   Clear
7:55 PM 62.6 °F 50.0 °F 63% 29.98 in 10.0 mi West 10.4 mph - N/A   Clear
8:15 PM 60.8 °F 50.0 °F 68% 29.98 in 10.0 mi West 5.8 mph - N/A   Clear
8:35 PM 59.0 °F 50.0 °F 72% 29.99 in 10.0 mi West 8.1 mph - N/A   Clear
8:55 PM 57.2 °F 50.0 °F 77% 30.00 in 10.0 mi West 6.9 mph - N/A   Clear
9:15 PM 55.4 °F 50.0 °F 82% 30.00 in 10.0 mi West 4.6 mph - N/A   Clear
9:35 PM 55.4 °F 50.0 °F 82% 30.00 in 10.0 mi WSW 4.6 mph - N/A   Clear
9:55 PM 55.4 °F 50.0 °F 82% 30.01 in 10.0 mi SW 3.5 mph - N/A   Clear
10:15 PM 55.4 °F 50.0 °F 82% 30.01 in 10.0 mi WSW 4.6 mph - N/A   Clear
10:35 PM 53.6 °F 50.0 °F 88% 30.01 in 10.0 mi WSW 3.5 mph - N/A   Clear
10:55 PM 53.6 °F 50.0 °F 88% 30.01 in 10.0 mi WSW 3.5 mph - N/A   Clear
11:15 PM 53.6 °F 50.0 °F 88% 30.01 in 10.0 mi WSW 3.5 mph - N/A   Clear
11:35 PM 51.8 °F 48.2 °F 88% 30.01 in 10.0 mi WSW 3.5 mph - N/A   Clear
11:55 PM 51.8 °F 48.2 °F 88% 30.01 in 10.0 mi West 3.5 mph - N/A   Clear